Location: La Brionne
(46.1728°N, 1.7849°E)
Time: 11:07:00
(UTC+00:00)

CUTE-I - Pass Details

Date: 29 March 2023
Orbit: 809 x 823 km, 98.7° (Epoch: 01 June)

Event Time Altitude Azimuth Distance (km) Brightness Sun altitude
Rises 18:51:36 0° 218° (SW) 3,319 ? -6.7°
Reaches altitude 10° 18:55:20 10° 246° (WSW) 2,396 ? -7.4°
Maximum altitude 18:57:44 13° 273° (W) 2,191 ? -7.8°
Drops below altitude 10° 19:00:09 10° 300° (WNW) 2,408 ? -8.2°
Sets 19:03:57 0° 328° (NNW) 3,350 ? -8.8°
